TimeEDT,TemperatureF,Dew PointF,Humidity,Sea Level PressureIn,VisibilityMPH,Wind Direction,Wind SpeedMPH,Gust SpeedMPH,PrecipitationIn,Events,Conditions,WindDirDegrees,DateUTC
12:52 AM,48.0,44.1,86,30.41,9.0,Calm,Calm,-,N/A,,Overcast,0,2013-10-13 04:52:00
1:52 AM,48.0,45.0,89,30.41,10.0,Calm,Calm,-,N/A,,Overcast,0,2013-10-13 05:52:00
2:52 AM,48.9,45.0,86,30.40,10.0,Calm,Calm,-,N/A,,Overcast,0,2013-10-13 06:52:00
3:49 AM,50.0,46.4,87,30.39,10.0,Calm,Calm,-,N/A,,Overcast,0,2013-10-13 07:49:00
3:52 AM,50.0,46.0,86,30.40,10.0,Calm,Calm,-,N/A,,Overcast,0,2013-10-13 07:52:00
4:52 AM,50.0,46.0,86,30.40,10.0,Calm,Calm,-,N/A,,Overcast,0,2013-10-13 08:52:00
5:52 AM,50.0,46.0,86,30.41,10.0,Calm,Calm,-,N/A,,Overcast,0,2013-10-13 09:52:00
6:52 AM,50.0,46.0,86,30.43,10.0,Calm,Calm,-,N/A,,Overcast,0,2013-10-13 10:52:00
7:52 AM,50.0,46.9,89,30.44,8.0,Calm,Calm,-,N/A,,Overcast,0,2013-10-13 11:52:00
8:52 AM,52.0,46.9,83,30.44,10.0,Calm,Calm,-,N/A,,Overcast,0,2013-10-13 12:52:00
9:52 AM,53.1,46.9,80,30.45,10.0,Calm,Calm,-,N/A,,Overcast,0,2013-10-13 13:52:00
10:52 AM,53.1,46.9,80,30.45,10.0,Calm,Calm,-,N/A,,Overcast,0,2013-10-13 14:52:00
11:52 AM,54.0,46.9,77,30.45,10.0,Calm,Calm,-,N/A,,Overcast,0,2013-10-13 15:52:00
12:52 PM,55.9,48.0,75,30.43,10.0,Calm,Calm,-,N/A,,Overcast,0,2013-10-13 16:52:00
1:00 PM,55.4,48.2,77,30.41,10.0,Variable,3.5,-,N/A,,Overcast,0,2013-10-13 17:00:00
1:52 PM,57.9,46.9,67,30.41,10.0,NE,4.6,-,N/A,,Overcast,40,2013-10-13 17:52:00
2:19 PM,59.0,48.2,67,30.39,10.0,Calm,Calm,-,N/A,,Partly Cloudy,0,2013-10-13 18:19:00
2:52 PM,61.0,48.0,62,30.38,10.0,Calm,Calm,-,N/A,,Clear,0,2013-10-13 18:52:00
3:52 PM,63.0,48.0,58,30.36,10.0,NNE,3.5,-,N/A,,Clear,30,2013-10-13 19:52:00
4:52 PM,63.0,48.0,58,30.36,10.0,Calm,Calm,-,N/A,,Clear,0,2013-10-13 20:52:00
5:52 PM,59.0,46.0,62,30.36,10.0,Calm,Calm,-,N/A,,Clear,0,2013-10-13 21:52:00
6:52 PM,50.0,45.0,83,30.39,10.0,Calm,Calm,-,N/A,,Clear,0,2013-10-13 22:52:00
7:52 PM,46.0,43.0,89,30.39,10.0,Calm,Calm,-,N/A,,Clear,0,2013-10-13 23:52:00
8:52 PM,42.1,39.0,89,30.40,10.0,Calm,Calm,-,N/A,,Clear,0,2013-10-14 00:52:00
9:52 PM,41.0,37.9,89,30.41,10.0,Calm,Calm,-,N/A,,Clear,0,2013-10-14 01:52:00
10:52 PM,37.9,36.0,93,30.40,3.0,Calm,Calm,-,N/A,,Partly Cloudy,0,2013-10-14 02:52:00
11:39 PM,37.4,35.6,93,30.37,9.0,Calm,Calm,-,N/A,,Mostly Cloudy,0,2013-10-14 03:39:00
11:52 PM,37.0,35.1,93,30.39,9.0,Calm,Calm,-,N/A,,Mostly Cloudy,0,2013-10-14 03:52:00